Current Version              Previous Version:    01  02  03  04  05  06  07  08  09  10  11  12  13  14  15  16  17  18  19  20  21  22  23  24  25  26  27  28  29  30  
   31  32  33  34  35  36  37  38  39  40  41  42  43  44  45  46  47  48  49  50  51  52  53  54  55  56  57  58  59  60  

[Printable]
640
ASUS44 KFWD 210710
RWRTX
NORTH TEXAS HOURLY WEATHER ROUNDUP
NATIONAL WEATHER SERVICE FORT WORTH TX
100 AM CST SUN DEC 21 2014

NOTE: "FAIR" INDICATES FEW OR NO CLOUDS BELOW 12,000 FEET WITH NO
SIGNIFICANT WEATHER AND/OR OBSTRUCTIONS TO VISIBILITY.

TXZ118-119-210800-
DALLAS/FORT WORTH METROPLEX

CITY           SKY/WX    TMP DP  RH WIND       PRES   REMARKS
DFW AIRPORT    CLOUDY    47  44  90 SE6       30.15F
DALLAS LOVE    CLOUDY    48  44  86 SE7       30.17F
FTW MEACHAM    CLOUDY    48  44  86 SE6       30.16F FOG
DAL-EXECUTIVE  CLOUDY    48  44  86 E3        30.16F
FTW-ALLIANCE   CLOUDY    47  43  86 S5        30.15F
FTW-SPINKS     CLOUDY    47  44  91 CALM      30.18F FOG
ARLINGTON      CLOUDY    49  43  80 E5        30.16F
GRAND PRAIRIE  CLOUDY   N/A N/A N/A MISG      30.18F
ADDISON        CLOUDY    48  48 100 SE6       30.18F
MESQUITE       CLOUDY    47  45  93 CALM      30.18F
LANCASTER      CLOUDY    46  44  90 CALM      30.19F FOG
$$

TXZ091>094-102>105-117-120-121-131>134-210800-
NORTH CENTRAL TEXAS

CITY           SKY/WX    TMP DP  RH WIND       PRES   REMARKS
SHRMAN/DENISON CLOUDY    46  46  97 CALM      30.17F FOG
GAINESVILLE    CLOUDY    44  43  95 SE3       30.17F
BOWIE          CLOUDY    44  43  97 SE3       30.14F FOG
BRIDGEPORT     CLOUDY    46  45  95 SE5       30.17F FOG
DECATUR        CLOUDY    45  44  97 SE5       30.15S FOG
DENTON         CLOUDY    46  43  89 SE5       30.16F
MCKINNEY       CLOUDY    46  44  93 SE5       30.17F
GREENVILLE     CLOUDY    46  45  93 SE3       30.19S FOG
ROCKWALL       CLOUDY    47  46  95 SE3       30.17S FOG
TERRELL        CLOUDY    50  45  83 SE6       30.19S
WAXAHACHIE     CLOUDY    46  46 100 CALM      30.18S FOG
CLEBURNE       CLOUDY    46  46 100 CALM      30.17F FOG
GRANBURY       CLOUDY    48  45  88 SE3       30.18F FOG
$$

TXZ083>090-098>101-113>116-127>130-139>142-154-155-210800-
WESTERN NORTH TEXAS

CITY           SKY/WX    TMP DP  RH WIND       PRES   REMARKS
WICHITA FALLS  CLEAR     43  39  86 SE12      30.11S WCI  37
WF-KICKAPOO    CLEAR     44  39  82 SE7       30.13S WCI  40
VERNON         CLOUDY    42  38  85 SE6       30.10F WCI  38
ABILENE        PTCLDY    43  39  86 SE14      30.09F WCI  36
BRECKENRIDGE   MOCLDY    48  40  74 S8        30.11F
GRAHAM         CLEAR     44  41  88 SE5       30.11S
MINERAL WELLS  CLOUDY    46  43  89 SE7       30.14F FOG
STEPHENVILLE   CLOUDY    46  42  84 SE3       30.17F
COMANCHE       CLOUDY    47  43  88 S6        30.15F
BROWNWOOD      CLOUDY    43  41  93 S5        30.14F
COLEMAN        CLOUDY    44  42  92 S9        30.12F WCI  39
BRADY          CLOUDY    43  43 100 SE7       30.11F WCI  39
$$

TXZ143>147-156>162-174-175-210800-
CENTRAL TEXAS

CITY           SKY/WX    TMP DP  RH WIND       PRES   REMARKS
WACO           CLOUDY    48  46  93 E6        30.17S
WACO-MCGREGOR  CLOUDY    48  43  81 SE7       30.17F
HILLSBORO      CLOUDY    48  45  90 E7        30.17S
CORSICANA      CLOUDY    49  43  80 CALM      30.19S
MEXIA          CLOUDY    46  43  90 CALM      30.17F
HEARNE         CLOUDY    48  45  87 CALM      30.19S
CAMERON        CLOUDY    48  46  90 SE3       30.18S
TEMPLE         CLOUDY    48  43  81 E6        30.15F
KILLEEN        NOT AVBL
KILLEEN-SKYLRK CLOUDY    48  43  81 SE5       30.14F
FORT HOOD      CLOUDY    48  47  96 SE3       30.14F
GATESVILLE     MOCLDY    48  46  93 CALM      30.18S
HAMILTON       CLOUDY    47  47 100 SE7       30.16S
$$

TXZ095>097-106>112-122>126-135>138-148>153-164>167-210800-
EAST TEXAS

CITY           SKY/WX    TMP DP  RH WIND       PRES   REMARKS
PARIS          CLOUDY    46  43  87 S5        30.19S
SULPHUR SPRNGS CLOUDY    47  44  87 SE6       30.21S
MOUNT PLEASANT CLOUDY    43  43 100 CALM      30.21S
MINEOLA        CLOUDY    43  43 100 CALM      30.20F FOG
TYLER          CLOUDY    42  39  89 CALM      30.18F
LONGVIEW       FOG       38  36  92 CALM      30.17F VSB 1/4
MARSHALL         N/A     38  36  94 CALM      30.20F
ATHENS         CLOUDY    39  39 100 CALM      30.18F
PALESTINE      MOCLDY    41  41 100 CALM      30.20S FOG
JACKSONVILLE   CLOUDY    42  42  99 CALM      30.19S FOG
HENDERSON      FOG       36  36 100 CALM      30.18F VSB 1
NACOGDOCHES    CLOUDY    36  34  93 CALM      30.18S VSB 3/4
LUFKIN         CLEAR     43  39  86 CALM      30.18S FOG
$$

SUPPLEMENTAL OBSERVATIONS (CENTRAL)

CITY           SKY/WX    TMP DP  RH WIND       PRES   REMARKS
CADDO GRASSLND   N/A     46  41  81 S3          N/A
PAT MAYSE LAKE   N/A     45  43  93 SE5         N/A
GREENVILLE       N/A     46  41  81 SE1         N/A
CEDAR HILL       N/A     46  41  81 SE3         N/A
PALESTINE        N/A     37  36  93 NE2         N/A
MCGREGOR         N/A     48  45  87 E6          N/A
TEMPLE           N/A     48  45  87 SE7         N/A
$$

SUPPLEMENTAL OBSERVATIONS (WEST)

CITY           SKY/WX    TMP DP  RH WIND       PRES   REMARKS
MILLERS CREEK    N/A     43  39  87 S8          N/A  WCI  38
POSSUM KINGDOM   N/A     45  39  81 SE9         N/A  WCI  40
LBJ GRASSLAND    N/A     45  41  87 SE5         N/A
GRANBURY         N/A     46  43  87 SE5         N/A
HAMBY            N/A     43  39  87 S12         N/A  WCI  37
IVIE RESERVOIR   N/A     45  39  81 SE8         N/A
COLORADO BEND    N/A     46  41  81 S6          N/A
$$

SUPPLEMENTAL OBSERVATIONS (EAST)

CITY           SKY/WX    TMP DP  RH WIND       PRES   REMARKS
CLARKSVILLE      N/A     46  43  87 SE5         N/A
TEXARKANA        N/A     39  36  87 CALM        N/A
LINDEN           N/A     37  36  93 CALM        N/A
GILMER           N/A     39  37  93 CALM        N/A
HENDERSON        N/A     36  32  87 NW1         N/A
LUFKIN           N/A     39  36  87 MISG        N/A
N SABINE NF      N/A     36  32  87 MISG        N/A
S SABINE NF      N/A     39  36  87 N1          N/A
$$

SUPPLEMENTAL OBSERVATIONS ARE A COLLECTION OF AUTOMATED INSTRUMENTS
THAT ARE MAINTAINED BY A VARIETY OF FEDERAL AND STATE AGENCIES.
CERTAIN ELEMENTS...SUCH AS HUMIDITY VALUES AND SUSTAINED WIND
SPEEDS...MAY BE APPROXIMATED.